COSMOS 1275 DEB

Satellite information

Favourite Embed

Satellite Type and Status

DEBRISIN ORBIT

Key statistics

Satellite COSMOS 1275 DEB at a glance.

Uptime

16217

Days in orbit

Revolutions

≈ 14.2

Per day

Orbit

LEO

Low Earth Orbit

Inclination

82.8

Latest

Satellite identification and parameters

Extended collection of information and parameters for COSMOS 1275 DEB.

Object identification

Identified? True

Debris? True

Object name: COSMOS 1275 DEB

International designator: 1981-053LE

Object number (NORAD): 17635

Object ID (CCSDS): 17635

Country: COMMONWEALTH OF INDEPENDENT STATES (CIS)

Current information (Y/N): Y

RCS size: SMALL

Orbital parameters

Period: 101.274 minutes

Inclination: 82.8232 deg

SMA: 7197.134 km

Apoapsis: 843.277 km

Periapsis: 794.722 km

RAAN: 210.9588 deg

Eccentricy: 0.00337326

Argument of periapsis: 264.501 deg

Mean anomaly: 95.2324 deg

Mean motion: 14.21881288 rev/day

Mean motion (dot): 0.00004303 rev/day2

B* drag term: 0.0019344497 1/REarth

Two-line elements (TLE)

Creation date: Oct. 27, 2025, 2:46 a.m.

Reference frame: TEME

Reference center: EARTH

Epoch: Oct. 26, 2025, 6:51 p.m. UTC

TLE line 0: 0 COSMOS 1275 DEB

TLE line 1: 1 17635U 81053LE 25299.78559282 .00004303 00000-0 19344-2 0 9995

TLE line 2: 2 17635 82.8232 210.9588 0033733 264.5010 95.2324 14.21881288 64984

Live tracking on map

Real-time ground track for satellite COSMOS 1275 DEB.

In-orbit conjunctions

A list of the most updated potential collisions computed for object COSMOS 1275 DEB.

Target Orbit TCA Probability of collision Miss distance Type
CZ-6A DEB SSO 2024-11-10 14:59:44 0.0005457136 322.0 (m) DEBRIS
CZ-6A DEB LEO 2024-10-14 09:25:03 0.0001838815 793.0 (m) DEBRIS
SL-16 DEB LEO 2024-06-05 13:31:43 0.000100536 79.0 (m) DEBRIS

Associated space launch

Navigation satellite providing location information for the Tsiklon-B navigation system

COSMOS 1275 DEB was lifted into orbit during the mission ‘Kosmos-3M | Parus 27’, on board a Kosmos-3M space rocket.

The launch took place on June 4, 1981, 3:41 p.m. from 132/2.

For more information about the launch, click the button.

Launch to space Kosmos-3M | Parus 27
Kosmos-3M | Parus 27

Agency: N/A

Status: Launch Successful

Launch date: June 4, 1981, 3:41 p.m. UTC

Rocket: Kosmos-3M

Launch pad: 132/2

Location: Plesetsk Cosmodrome, Russian Federation

...

Latest news about this satellite

There are no fresh news available about this satellite. Check back as we update our databases every day.


Newsletter sign-up

Weekly statistics, charts and insights to help you stay on top of the space industry.